Regional Weather Roundup
Issued by NWS

Home | Current Version | Previous Version | Text Only | Print | Product List | Glossary Off
Versions: 1 2 3 4 5 6 7 8 9 10 11 12 13 14 15 16 17 18 19 20 21 22 23 24 25 26 27 28 29 30 31 32 33 34 35 36 37 38 39 40 41 42 43 44 45 46 47 48 49 50

000
ASUS43 KDMX 011407
RWRIA

WEATHER ROUNDUP FOR IOWA
NATIONAL WEATHER SERVICE DES MOINES IA
900 AM CDT WED JUL 01 2015

NOTE: "FAIR" INDICATES FEW OR NO CLOUDS BELOW 12,000 FEET WITH NO
SIGNIFICANT WEATHER AND/OR OBSTRUCTIONS TO VISIBILITY.

* - THESE STATIONS ARE NOT NWS STATIONS...THUS NOT UNDER NWS
QUALITY CONTROL.  THEY ALSO DO NOT REPORT WEATHER SUCH
AS PRECIPITATION OR FOG.

IAZ001>003-012>014-020>022-031>034-043>046-011500-
   NORTHWEST IOWA

CITY           SKY/WX    TMP DP  RH WIND       PRES   REMARKS
CARROLL *      PTSUNNY   64  64 100 E8G15     29.91S
CHEROKEE *     CLOUDY    64  63  94 SE9       29.90F
DENISON *      LGT RAIN  66  66 100 N7        29.93R VSB 1
LE MARS *      PTSUNNY   66  64  94 E8G15     29.90S
ORANGE CITY *  MOSUNNY   64  61  88 SE5       29.92R
SHELDON *      MOSUNNY   66  66 100 E12G21    29.92R
SIOUX CITY     PTSUNNY   68  65  90 E8        29.87R FOG
SPENCER        CLOUDY    66  58  75 E13       29.95R
STORM LAKE *   CLOUDY    63  61  94 SE10G16   29.94F FOG
$$

IAZ055>058-069>071-079>083-090>094-011500-
   SOUTHWEST IOWA

CITY           SKY/WX    TMP DP  RH WIND       PRES   REMARKS
ATLANTIC *     LGT RAIN  68  68 100 E7        29.87S
AUDUBON *      LGT RAIN  66  64  94 CALM      29.92R
CLARINDA *     CLOUDY    72  70  94 NE8       29.90R
COUNCIL BLFS * MOSUNNY   70  66  88 E10       29.88R
CRESTON *      CLOUDY    68  66  94 SE16      29.87F FOG
HARLAN  *      CLOUDY    68  68 100 E3        29.91S FOG
LAMONI         MOSUNNY   71  68  90 NE9       29.90R
RED OAK *      SUNNY     72  68  88 SE9G16    29.87R
SHENANDOAH *   MOSUNNY   73  70  88 E10       29.87S
$$

IAZ047>049-059>061-072>074-084-011500-
   CENTRAL IOWA

CITY           SKY/WX    TMP DP  RH WIND       PRES   REMARKS
AMES           PTSUNNY   66  59  78 E12       29.91F
ANKENY *       SUNNY     68  63  83 E8        29.90F
CHARITON *     CLOUDY    70  68  94 NE7       29.92R FOG
DES MOINES     CLOUDY    69  61  75 E12       29.90F
GRINNELL*      MOSUNNY   66  59  77 E10       29.94S
KNOXVILLE *    PTSUNNY   68  61  77 E9        29.91R
MARSHALLTOWN   MOSUNNY   65  58  78 E9        29.94S
PELLA *        MOSUNNY   70  63  78 E7        29.93S
PERRY *          N/A     66  63  88 E12       29.91R
$$

IAZ004>006-015-016-023>025-035-036-011500-
   NORTH CENTRAL IOWA

CITY           SKY/WX    TMP DP  RH WIND       PRES   REMARKS
ALGONA *       SUNNY     63  57  82 E7G14     29.96S
CLARION *      SUNNY     66  57  72 E12       29.95S
ESTHERVILLE    CLOUDY    62  57  83 E6        29.97R
FORT DODGE *   MOSUNNY   66  59  77 E10       29.94S
MASON CITY     SUNNY     62  56  80 E9        29.99R
FOREST CITY *  SUNNY     61  55  82 E8        29.98R
IOWA FALLS *     N/A     64  55  72 E9        29.96F
$$

IAZ007>011-017>019-026>030-037>042-050>054-066-011500-
   NORTHEAST IOWA

CITY           SKY/WX    TMP DP  RH WIND       PRES   REMARKS
CEDAR RAPIDS   SUNNY     64  59  83 E9        29.95R
CHARLES CITY * SUNNY     61  59  94 E9        29.99S
CLINTON *      MOSUNNY   63  57  82 E8        29.98S
DECORAH *        N/A    N/A N/A N/A MISG        N/A
DUBUQUE        CLOUDY    62  57  83 NE9       29.97R
MONTICELLO *   CLOUDY    61 N/A N/A NE6       29.97R HAZE
OELWEIN *      SUNNY     61  57  88 NE9       29.99R
WATERLOO       SUNNY     62  56  80 E8        29.97R
$$

IAZ064-065-067-068-078-011500-
   EAST CENTRAL IOWA

CITY           SKY/WX    TMP DP  RH WIND       PRES   REMARKS
DAVENPORT      CLOUDY    63  60  90 E10       29.95R FOG
IOWA CITY      SUNNY     66  59  78 NE12      29.94S
MT. PLEASANT * SUNNY     72  61  68 NE6       29.92S
MUSCATINE *    SUNNY     68  61  77 NE8       29.93R
QUAD CITIES    CLOUDY    65  61  87 NE12      29.93S FOG
$$

IAZ062-063-075>077-085>089-095>099-011500-
   SOUTHEAST IOWA

CITY           SKY/WX    TMP DP  RH WIND       PRES   REMARKS
BURLINGTON     SUNNY     71  64  78 NE9       29.91R
FAIRFIELD *    SUNNY     68  63  83 E9        29.92S
FORT MADISON * SUNNY     70  66  88 CALM      29.92R
KEOKUK *       PTSUNNY   72  68  88 W5        29.91R
OSKALOOSA *      N/A     68  61  77 E5        29.93R
CENTERVILLE *  SUNNY     72  66  83 NE6       29.92R
OTTUMWA        SUNNY     69  63  81 E9        29.91R
WASHINGTON *   SUNNY     68  63  83 NE6       29.95R
$$

ABBREVIATIONS USED IN REMARKS
   TC - TEMPERATURES IN CELSIUS
  WCI - WIND CHILL INDEX
   HX - HEAT INDEX
  VSB - VISIBILITY
$$




USA.gov is the U.S. government's official web portal to all federal, state and local government web resources and services.